Wetterdaten: Freitag, 16.02.2018
Datum Zeit Temp. Auen Feucht Auen Luftdruck Regen Richtung Richtung Windben
16.02.2018 00:00 0,5 C 96 % 1022,7 hPa 0,0 mm SO 124 0,0 km/h (0 Bft)
16.02.2018 00:05 0,5 C 96 % 1022,7 hPa 0,0 mm SO 124 0,0 km/h (0 Bft)
16.02.2018 00:10 0,6 C 96 % 1022,6 hPa 0,0 mm SO 124 0,0 km/h (0 Bft)
16.02.2018 00:15 0,6 C 96 % 1022,6 hPa 0,0 mm SO 124 0,0 km/h (0 Bft)
16.02.2018 00:20 0,6 C 96 % 1022,6 hPa 0,0 mm SO 124 0,0 km/h (0 Bft)
16.02.2018 00:25 0,6 C 96 % 1022,6 hPa 0,0 mm SO 124 0,0 km/h (0 Bft)
16.02.2018 00:30 0,6 C 96 % 1022,5 hPa 0,0 mm SO 124 0,0 km/h (0 Bft)
16.02.2018 00:35 0,6 C 96 % 1022,6 hPa 0,0 mm SO 124 0,0 km/h (0 Bft)
16.02.2018 00:40 0,6 C 96 % 1022,5 hPa 0,0 mm SO 124 0,0 km/h (0 Bft)
16.02.2018 00:45 0,6 C 96 % 1022,5 hPa 0,2 mm SO 124 0,0 km/h (0 Bft)
16.02.2018 00:50 0,6 C 96 % 1022,6 hPa 0,0 mm SO 124 0,0 km/h (0 Bft)
16.02.2018 00:55 0,6 C 96 % 1022,5 hPa 0,0 mm SO 124 0,0 km/h (0 Bft)
16.02.2018 01:00 0,6 C 96 % 1022,4 hPa 0,0 mm SO 124 0,0 km/h (0 Bft)
16.02.2018 01:05 0,6 C 96 % 1022,4 hPa 0,0 mm SO 124 1,6 km/h (1 Bft)
16.02.2018 01:10 0,6 C 96 % 1022,4 hPa 0,0 mm SO 124 0,0 km/h (0 Bft)
16.02.2018 01:15 0,6 C 96 % 1022,4 hPa 0,0 mm SO 124 0,0 km/h (0 Bft)
16.02.2018 01:20 0,6 C 96 % 1022,2 hPa 0,0 mm SO 124 0,0 km/h (0 Bft)
16.02.2018 01:25 0,6 C 96 % 1022,2 hPa 0,2 mm SO 124 0,0 km/h (0 Bft)
16.02.2018 01:30 0,6 C 96 % 1022,3 hPa 0,0 mm SO 124 0,0 km/h (0 Bft)
16.02.2018 01:35 0,6 C 96 % 1022,2 hPa 0,0 mm SO 124 0,0 km/h (0 Bft)
16.02.2018 01:40 0,6 C 96 % 1022,2 hPa 0,0 mm SO 124 0,0 km/h (0 Bft)
16.02.2018 01:45 0,6 C 96 % 1022,2 hPa 0,0 mm SO 124 0,0 km/h (0 Bft)
16.02.2018 01:50 0,6 C 96 % 1022,2 hPa 0,0 mm SO 124 0,0 km/h (0 Bft)
16.02.2018 01:55 0,7 C 96 % 1022,3 hPa 0,0 mm SO 124 0,0 km/h (0 Bft)
16.02.2018 02:00 0,7 C 96 % 1022,2 hPa 0,0 mm SO 124 0,0 km/h (0 Bft)
16.02.2018 02:05 0,6 C 96 % 1022,1 hPa 0,2 mm SO 124 0,0 km/h (0 Bft)
16.02.2018 02:10 0,7 C 96 % 1022,0 hPa 0,0 mm SO 124 1,6 km/h (1 Bft)
16.02.2018 02:15 0,7 C 96 % 1021,9 hPa 0,0 mm SO 124 0,0 km/h (0 Bft)
16.02.2018 02:20 0,6 C 96 % 1021,7 hPa 0,0 mm SO 124 0,0 km/h (0 Bft)
16.02.2018 02:25 0,6 C 96 % 1021,7 hPa 0,0 mm SO 124 1,6 km/h (1 Bft)
16.02.2018 02:30 0,7 C 96 % 1021,6 hPa 0,0 mm SO 124 0,0 km/h (0 Bft)
16.02.2018 02:35 0,6 C 96 % 1021,5 hPa 0,0 mm SO 124 0,0 km/h (0 Bft)
16.02.2018 02:40 0,6 C 96 % 1021,6 hPa 0,0 mm SO 124 0,0 km/h (0 Bft)
16.02.2018 02:45 0,7 C 96 % 1021,6 hPa 0,0 mm SO 124 1,6 km/h (1 Bft)
16.02.2018 02:50 0,7 C 96 % 1021,6 hPa 0,0 mm SO 124 1,6 km/h (1 Bft)
16.02.2018 02:55 0,7 C 96 % 1021,5 hPa 0,0 mm SO 124 0,0 km/h (0 Bft)
16.02.2018 03:00 0,6 C 96 % 1021,4 hPa 0,0 mm SO 124 0,0 km/h (0 Bft)
16.02.2018 03:05 0,7 C 96 % 1021,4 hPa 0,0 mm SO 124 0,0 km/h (0 Bft)
16.02.2018 03:10 0,7 C 96 % 1021,3 hPa 0,0 mm SO 124 0,0 km/h (0 Bft)
16.02.2018 03:15 0,7 C 96 % 1021,3 hPa 0,0 mm SO 124 0,0 km/h (0 Bft)
16.02.2018 03:20 0,7 C 96 % 1021,3 hPa 0,0 mm SO 124 0,0 km/h (0 Bft)
16.02.2018 03:25 0,7 C 96 % 1021,4 hPa 0,2 mm W 281 4,8 km/h (1 Bft)
16.02.2018 03:30 0,7 C 96 % 1021,3 hPa 0,0 mm W 281 3,2 km/h (1 Bft)
16.02.2018 03:35 0,7 C 96 % 1021,3 hPa 0,0 mm W 281 1,6 km/h (1 Bft)
16.02.2018 03:40 0,7 C 96 % 1021,3 hPa 0,0 mm W 280 0,0 km/h (0 Bft)
16.02.2018 03:45 0,7 C 96 % 1021,4 hPa 0,0 mm W 280 0,0 km/h (0 Bft)
16.02.2018 03:50 0,8 C 96 % 1021,3 hPa 0,0 mm W 280 0,0 km/h (0 Bft)
16.02.2018 03:55 0,8 C 96 % 1021,4 hPa 0,0 mm W 280 0,0 km/h (0 Bft)
16.02.2018 04:00 0,8 C 96 % 1021,4 hPa 0,2 mm W 281 0,0 km/h (0 Bft)
16.02.2018 04:05 0,8 C 96 % 1021,4 hPa 0,0 mm W 280 0,0 km/h (0 Bft)
16.02.2018 04:10 0,8 C 96 % 1021,4 hPa 0,2 mm W 281 0,0 km/h (0 Bft)
16.02.2018 04:15 0,8 C 96 % 1021,5 hPa 0,0 mm W 281 0,0 km/h (0 Bft)
16.02.2018 04:20 0,8 C 96 % 1021,3 hPa 0,2 mm W 281 0,0 km/h (0 Bft)
16.02.2018 04:25 0,8 C 96 % 1021,3 hPa 0,0 mm W 281 0,0 km/h (0 Bft)
16.02.2018 04:30 0,9 C 96 % 1021,5 hPa 0,2 mm W 281 0,0 km/h (0 Bft)
16.02.2018 04:35 0,9 C 96 % 1021,6 hPa 0,0 mm W 281 0,0 km/h (0 Bft)
16.02.2018 04:40 0,8 C 96 % 1021,6 hPa 0,2 mm W 281 0,0 km/h (0 Bft)
16.02.2018 04:45 0,9 C 96 % 1021,6 hPa 0,2 mm W 281 0,0 km/h (0 Bft)
16.02.2018 04:50 1,0 C 96 % 1021,7 hPa 0,0 mm W 281 0,0 km/h (0 Bft)
16.02.2018 04:55 0,9 C 96 % 1021,7 hPa 0,0 mm W 280 0,0 km/h (0 Bft)
16.02.2018 05:00 1,0 C 96 % 1021,8 hPa 0,2 mm W 281 0,0 km/h (0 Bft)
16.02.2018 05:05 1,1 C 96 % 1021,9 hPa 0,2 mm W 280 0,0 km/h (0 Bft)
16.02.2018 05:10 1,1 C 96 % 1021,9 hPa 0,0 mm W 280 0,0 km/h (0 Bft)
16.02.2018 05:15 0,9 C 96 % 1021,9 hPa 0,0 mm W 281 0,0 km/h (0 Bft)
16.02.2018 05:20 0,9 C 96 % 1022,0 hPa 0,2 mm W 281 0,0 km/h (0 Bft)
16.02.2018 05:25 0,9 C 96 % 1022,1 hPa 0,0 mm W 281 0,0 km/h (0 Bft)
16.02.2018 05:30 1,0 C 96 % 1022,3 hPa 0,2 mm W 280 3,2 km/h (1 Bft)
16.02.2018 05:35 1,1 C 96 % 1022,5 hPa 0,0 mm W 280 4,8 km/h (1 Bft)
16.02.2018 05:40 1,1 C 96 % 1022,7 hPa 0,2 mm W 271 8,0 km/h (2 Bft)
16.02.2018 05:45 1,1 C 96 % 1022,8 hPa 0,2 mm W 273 8,0 km/h (2 Bft)
16.02.2018 05:50 1,2 C 96 % 1022,9 hPa 0,2 mm W 265 6,4 km/h (2 Bft)
16.02.2018 05:55 1,4 C 96 % 1023,1 hPa 0,2 mm W 269 6,4 km/h (2 Bft)
16.02.2018 06:00 1,9 C 96 % 1023,3 hPa 0,2 mm W 269 12,9 km/h (3 Bft)
16.02.2018 06:05 2,2 C 96 % 1023,5 hPa 0,2 mm W-NW 284 17,7 km/h (3 Bft)
16.02.2018 06:10 2,3 C 96 % 1023,6 hPa 0,2 mm W 275 17,7 km/h (3 Bft)
16.02.2018 06:15 2,2 C 96 % 1023,8 hPa 0,2 mm W 281 16,1 km/h (3 Bft)
16.02.2018 06:20 2,2 C 96 % 1024,0 hPa 0,2 mm W-SW 258 17,7 km/h (3 Bft)
16.02.2018 06:25 2,1 C 96 % 1024,3 hPa 0,0 mm W 275 14,5 km/h (3 Bft)
16.02.2018 06:30 2,0 C 96 % 1024,4 hPa 0,2 mm W-NW 284 14,5 km/h (3 Bft)
16.02.2018 06:35 1,9 C 96 % 1024,5 hPa 0,2 mm W 265 14,5 km/h (3 Bft)
16.02.2018 06:40 1,9 C 96 % 1024,7 hPa 0,2 mm W 261 16,1 km/h (3 Bft)
16.02.2018 06:45 1,9 C 96 % 1024,9 hPa 0,0 mm W 274 8,0 km/h (2 Bft)
16.02.2018 06:50 1,9 C 96 % 1024,9 hPa 0,2 mm W 267 9,7 km/h (2 Bft)
16.02.2018 06:55 1,8 C 96 % 1024,9 hPa 0,2 mm W 262 8,0 km/h (2 Bft)
16.02.2018 07:00 1,8 C 96 % 1024,9 hPa 0,0 mm W-NW 284 9,7 km/h (2 Bft)
16.02.2018 07:05 1,8 C 96 % 1025,0 hPa 0,2 mm W 273 8,0 km/h (2 Bft)
16.02.2018 07:10 1,7 C 96 % 1025,1 hPa 0,0 mm W 276 6,4 km/h (2 Bft)
16.02.2018 07:15 1,7 C 96 % 1025,1 hPa 0,2 mm W 261 9,7 km/h (2 Bft)
16.02.2018 07:20 1,7 C 96 % 1025,3 hPa 0,0 mm W 271 9,7 km/h (2 Bft)
16.02.2018 07:25 1,7 C 96 % 1025,4 hPa 0,0 mm W 271 4,8 km/h (1 Bft)
16.02.2018 07:30 1,6 C 96 % 1025,5 hPa 0,0 mm W 271 4,8 km/h (1 Bft)
16.02.2018 07:35 1,6 C 96 % 1025,6 hPa 0,0 mm W 271 4,8 km/h (1 Bft)
16.02.2018 07:40 1,6 C 96 % 1025,7 hPa 0,2 mm W 271 6,4 km/h (2 Bft)
16.02.2018 07:45 1,6 C 96 % 1025,6 hPa 0,0 mm W 271 4,8 km/h (1 Bft)
16.02.2018 07:50 1,6 C 96 % 1025,7 hPa 0,2 mm W 271 4,8 km/h (1 Bft)
16.02.2018 07:55 1,6 C 96 % 1025,8 hPa 0,0 mm W 267 4,8 km/h (1 Bft)
16.02.2018 08:00 1,6 C 96 % 1025,8 hPa 0,0 mm W 267 4,8 km/h (1 Bft)
16.02.2018 08:05 1,6 C 96 % 1025,8 hPa 0,2 mm W 267 4,8 km/h (1 Bft)
16.02.2018 08:10 1,7 C 96 % 1025,9 hPa 0,0 mm W 267 6,4 km/h (2 Bft)
16.02.2018 08:15 1,7 C 96 % 1025,9 hPa 0,0 mm W 266 4,8 km/h (1 Bft)
16.02.2018 08:20 1,7 C 96 % 1025,9 hPa 0,0 mm W 266 4,8 km/h (1 Bft)
16.02.2018 08:25 1,8 C 96 % 1025,8 hPa 0,0 mm W 267 6,4 km/h (2 Bft)
16.02.2018 08:30 1,7 C 96 % 1026,0 hPa 0,2 mm W 266 6,4 km/h (2 Bft)
16.02.2018 08:35 1,7 C 96 % 1026,1 hPa 0,0 mm W 267 6,4 km/h (2 Bft)
16.02.2018 08:40 1,7 C 96 % 1026,4 hPa 0,0 mm W 276 6,4 km/h (2 Bft)
16.02.2018 08:45 1,7 C 96 % 1026,5 hPa 0,0 mm W 274 8,0 km/h (2 Bft)
16.02.2018 08:50 1,6 C 96 % 1026,4 hPa 0,0 mm W 274 4,8 km/h (1 Bft)
16.02.2018 08:55 1,7 C 96 % 1026,5 hPa 0,0 mm W 271 6,4 km/h (2 Bft)
16.02.2018 09:00 1,6 C 96 % 1026,4 hPa 0,2 mm W 273 4,8 km/h (1 Bft)
16.02.2018 09:05 1,7 C 96 % 1026,5 hPa 0,0 mm W 267 6,4 km/h (2 Bft)
16.02.2018 09:10 1,7 C 96 % 1026,7 hPa 0,0 mm W 267 6,4 km/h (2 Bft)
16.02.2018 09:15 1,7 C 96 % 1026,7 hPa 0,0 mm W 267 6,4 km/h (2 Bft)
16.02.2018 09:20 1,7 C 96 % 1026,8 hPa 0,0 mm W 267 8,0 km/h (2 Bft)
16.02.2018 09:25 1,8 C 96 % 1027,0 hPa 0,0 mm W 262 6,4 km/h (2 Bft)
16.02.2018 09:30 1,8 C 96 % 1027,1 hPa 0,2 mm W 268 6,4 km/h (2 Bft)
16.02.2018 09:35 1,8 C 96 % 1027,2 hPa 0,0 mm W 263 8,0 km/h (2 Bft)
16.02.2018 09:40 1,8 C 96 % 1027,3 hPa 0,0 mm W 272 6,4 km/h (2 Bft)
16.02.2018 09:45 1,8 C 96 % 1027,5 hPa 0,0 mm W 272 6,4 km/h (2 Bft)
16.02.2018 09:50 1,7 C 96 % 1027,5 hPa 0,0 mm W 272 4,8 km/h (1 Bft)
16.02.2018 09:55 1,8 C 96 % 1027,6 hPa 0,2 mm W 271 6,4 km/h (2 Bft)
16.02.2018 10:00 1,8 C 96 % 1027,6 hPa 0,0 mm W 264 6,4 km/h (2 Bft)
16.02.2018 10:05 1,8 C 96 % 1027,6 hPa 0,2 mm W 266 4,8 km/h (1 Bft)
16.02.2018 10:10 1,9 C 96 % 1027,6 hPa 0,0 mm W 276 6,4 km/h (2 Bft)
16.02.2018 10:15 2,0 C 96 % 1027,7 hPa 0,0 mm W 266 4,8 km/h (1 Bft)
16.02.2018 10:20 2,1 C 96 % 1027,8 hPa 0,0 mm W 266 3,2 km/h (1 Bft)
16.02.2018 10:25 2,2 C 96 % 1027,8 hPa 0,0 mm W 266 3,2 km/h (1 Bft)
16.02.2018 10:30 2,3 C 96 % 1027,8 hPa 0,0 mm W 266 1,6 km/h (1 Bft)
16.02.2018 10:35 2,4 C 96 % 1027,8 hPa 0,0 mm W 266 3,2 km/h (1 Bft)
16.02.2018 10:40 2,6 C 96 % 1027,9 hPa 0,0 mm W 266 3,2 km/h (1 Bft)
16.02.2018 10:45 2,6 C 96 % 1027,9 hPa 0,0 mm W 266 4,8 km/h (1 Bft)
16.02.2018 10:50 2,5 C 96 % 1028,0 hPa 0,0 mm W 275 6,4 km/h (2 Bft)
16.02.2018 10:55 2,6 C 96 % 1027,9 hPa 0,0 mm W 272 6,4 km/h (2 Bft)
16.02.2018 11:00 2,7 C 96 % 1028,0 hPa 0,2 mm W 272 3,2 km/h (1 Bft)
16.02.2018 11:05 2,6 C 96 % 1027,9 hPa 0,0 mm W 272 0,0 km/h (0 Bft)
16.02.2018 11:10 2,9 C 96 % 1027,9 hPa 0,0 mm W 272 0,0 km/h (0 Bft)
16.02.2018 11:15 3,2 C 96 % 1028,0 hPa 0,0 mm W 272 1,6 km/h (1 Bft)
16.02.2018 11:20 3,0 C 96 % 1027,9 hPa 0,0 mm W 272 3,2 km/h (1 Bft)
16.02.2018 11:25 3,3 C 96 % 1028,0 hPa 0,0 mm W 272 4,8 km/h (1 Bft)
16.02.2018 11:30 3,4 C 96 % 1028,0 hPa 0,0 mm W 272 4,8 km/h (1 Bft)
16.02.2018 11:35 3,1 C 95 % 1028,0 hPa 0,0 mm W 272 3,2 km/h (1 Bft)
16.02.2018 11:40 3,0 C 96 % 1028,1 hPa 0,0 mm W 272 3,2 km/h (1 Bft)
16.02.2018 11:45 3,1 C 96 % 1028,0 hPa 0,0 mm W 272 4,8 km/h (1 Bft)
16.02.2018 11:50 2,9 C 96 % 1028,1 hPa 0,0 mm W 272 1,6 km/h (1 Bft)
16.02.2018 11:55 3,0 C 96 % 1027,9 hPa 0,0 mm W 272 3,2 km/h (1 Bft)
16.02.2018 12:00 3,2 C 96 % 1028,0 hPa 0,0 mm W 272 1,6 km/h (1 Bft)
16.02.2018 12:05 3,4 C 96 % 1028,1 hPa 0,0 mm W 272 4,8 km/h (1 Bft)
16.02.2018 12:10 3,4 C 96 % 1028,0 hPa 0,0 mm W 272 3,2 km/h (1 Bft)
16.02.2018 12:15 3,2 C 95 % 1028,0 hPa 0,0 mm W 272 3,2 km/h (1 Bft)
16.02.2018 12:20 3,2 C 96 % 1028,1 hPa 0,0 mm W 272 1,6 km/h (1 Bft)
16.02.2018 12:25 3,3 C 96 % 1028,2 hPa 0,0 mm W 272 3,2 km/h (1 Bft)
16.02.2018 12:30 3,1 C 95 % 1028,2 hPa 0,0 mm W 272 1,6 km/h (1 Bft)
16.02.2018 12:35 3,3 C 96 % 1028,2 hPa 0,0 mm W 272 1,6 km/h (1 Bft)
16.02.2018 12:40 3,3 C 95 % 1028,1 hPa 0,0 mm W 272 1,6 km/h (1 Bft)
16.02.2018 12:45 3,4 C 95 % 1028,1 hPa 0,0 mm W 272 1,6 km/h (1 Bft)
16.02.2018 12:50 3,6 C 96 % 1028,1 hPa 0,0 mm W 272 1,6 km/h (1 Bft)
16.02.2018 12:55 3,6 C 96 % 1028,3 hPa 0,0 mm W 272 4,8 km/h (1 Bft)
16.02.2018 13:00 3,7 C 95 % 1028,2 hPa 0,0 mm W 272 4,8 km/h (1 Bft)
16.02.2018 13:05 3,9 C 95 % 1028,1 hPa 0,0 mm W 272 4,8 km/h (1 Bft)
16.02.2018 13:10 4,2 C 95 % 1028,1 hPa 0,0 mm W 281 6,4 km/h (2 Bft)
16.02.2018 13:15 4,2 C 95 % 1028,1 hPa 0,0 mm W 265 6,4 km/h (2 Bft)
16.02.2018 13:20 4,3 C 95 % 1027,9 hPa 0,0 mm W 275 6,4 km/h (2 Bft)
16.02.2018 13:25 4,4 C 94 % 1027,9 hPa 0,0 mm W-SW 257 8,0 km/h (2 Bft)
16.02.2018 13:30 4,4 C 94 % 1027,8 hPa 0,0 mm W 271 8,0 km/h (2 Bft)
16.02.2018 13:35 4,4 C 94 % 1027,7 hPa 0,0 mm W 271 8,0 km/h (2 Bft)
16.02.2018 13:40 4,4 C 94 % 1027,8 hPa 0,0 mm N-NW 347 6,4 km/h (2 Bft)
16.02.2018 13:45 4,5 C 93 % 1027,9 hPa 0,0 mm W 263 4,8 km/h (1 Bft)
16.02.2018 13:50 4,7 C 93 % 1027,9 hPa 0,0 mm W 271 8,0 km/h (2 Bft)
16.02.2018 13:55 4,7 C 93 % 1027,9 hPa 0,0 mm W-NW 300 9,7 km/h (2 Bft)
16.02.2018 14:00 4,8 C 93 % 1027,8 hPa 0,0 mm W-NW 298 6,4 km/h (2 Bft)
16.02.2018 14:05 4,8 C 93 % 1027,8 hPa 0,0 mm W 272 6,4 km/h (2 Bft)
16.02.2018 14:10 4,7 C 92 % 1027,7 hPa 0,0 mm W 272 6,4 km/h (2 Bft)
16.02.2018 14:15 4,4 C 92 % 1027,7 hPa 0,0 mm W 272 3,2 km/h (1 Bft)
16.02.2018 14:20 4,6 C 92 % 1027,7 hPa 0,0 mm W 272 3,2 km/h (1 Bft)
16.02.2018 14:25 4,6 C 92 % 1027,8 hPa 0,0 mm W 272 6,4 km/h (2 Bft)
16.02.2018 14:30 4,6 C 92 % 1027,8 hPa 0,0 mm W 277 4,8 km/h (1 Bft)
16.02.2018 14:35 4,3 C 92 % 1027,8 hPa 0,0 mm W 277 3,2 km/h (1 Bft)
16.02.2018 14:40 4,4 C 93 % 1027,8 hPa 0,0 mm W 265 11,3 km/h (2 Bft)
16.02.2018 14:45 4,4 C 93 % 1027,8 hPa 0,2 mm W 270 9,7 km/h (2 Bft)
16.02.2018 14:50 4,3 C 92 % 1027,9 hPa 0,0 mm W-NW 289 8,0 km/h (2 Bft)
16.02.2018 14:55 4,4 C 93 % 1027,8 hPa 0,0 mm W 277 8,0 km/h (2 Bft)
16.02.2018 15:00 4,4 C 92 % 1027,9 hPa 0,0 mm W 281 11,3 km/h (2 Bft)
16.02.2018 15:05 4,3 C 92 % 1027,8 hPa 0,0 mm W-SW 252 8,0 km/h (2 Bft)
16.02.2018 15:10 4,4 C 92 % 1027,5 hPa 0,0 mm W 279 4,8 km/h (1 Bft)
16.02.2018 15:15 4,4 C 92 % 1027,7 hPa 0,0 mm W 265 6,4 km/h (2 Bft)
16.02.2018 15:20 4,7 C 92 % 1027,6 hPa 0,0 mm W 265 4,8 km/h (1 Bft)
16.02.2018 15:25 4,4 C 91 % 1027,6 hPa 0,0 mm W 265 4,8 km/h (1 Bft)
16.02.2018 15:30 4,4 C 91 % 1027,5 hPa 0,0 mm W-NW 282 6,4 km/h (2 Bft)
16.02.2018 15:35 4,3 C 91 % 1027,6 hPa 0,0 mm W-NW 282 4,8 km/h (1 Bft)
16.02.2018 15:40 4,2 C 92 % 1027,6 hPa 0,0 mm W-NW 282 3,2 km/h (1 Bft)
16.02.2018 15:45 4,2 C 92 % 1027,7 hPa 0,0 mm W 269 6,4 km/h (2 Bft)
16.02.2018 15:50 4,2 C 92 % 1027,7 hPa 0,0 mm W 275 6,4 km/h (2 Bft)
16.02.2018 15:55 4,1 C 92 % 1027,8 hPa 0,0 mm W 275 4,8 km/h (1 Bft)
16.02.2018 16:00 3,9 C 92 % 1027,8 hPa 0,0 mm W 275 4,8 km/h (1 Bft)
16.02.2018 16:05 3,6 C 92 % 1027,7 hPa 0,0 mm W 275 1,6 km/h (1 Bft)
16.02.2018 16:10 3,4 C 93 % 1027,8 hPa 0,0 mm W 275 1,6 km/h (1 Bft)
16.02.2018 16:15 3,6 C 93 % 1028,0 hPa 0,0 mm W 275 3,2 km/h (1 Bft)
16.02.2018 16:20 3,5 C 93 % 1027,9 hPa 0,0 mm W 275 1,6 km/h (1 Bft)
16.02.2018 16:25 3,4 C 93 % 1027,8 hPa 0,0 mm W 275 1,6 km/h (1 Bft)
16.02.2018 16:30 3,4 C 93 % 1027,8 hPa 0,0 mm W 275 1,6 km/h (1 Bft)
16.02.2018 16:35 3,4 C 93 % 1027,8 hPa 0,0 mm W 275 0,0 km/h (0 Bft)
16.02.2018 16:40 3,4 C 94 % 1028,0 hPa 0,0 mm W 275 1,6 km/h (1 Bft)
16.02.2018 16:45 3,3 C 94 % 1028,0 hPa 0,0 mm W 275 1,6 km/h (1 Bft)
16.02.2018 16:50 3,4 C 94 % 1028,0 hPa 0,0 mm W 275 0,0 km/h (0 Bft)
16.02.2018 16:55 3,3 C 94 % 1027,9 hPa 0,0 mm W 275 1,6 km/h (1 Bft)
16.02.2018 17:00 3,2 C 94 % 1028,0 hPa 0,0 mm W 275 1,6 km/h (1 Bft)
16.02.2018 17:05 3,2 C 94 % 1028,0 hPa 0,0 mm W 275 1,6 km/h (1 Bft)
16.02.2018 17:10 3,2 C 94 % 1027,9 hPa 0,0 mm W 275 1,6 km/h (1 Bft)
16.02.2018 17:15 3,1 C 94 % 1027,9 hPa 0,0 mm W 275 0,0 km/h (0 Bft)
16.02.2018 17:20 2,9 C 94 % 1028,0 hPa 0,0 mm W 275 0,0 km/h (0 Bft)
16.02.2018 17:25 2,9 C 94 % 1028,1 hPa 0,0 mm W 275 1,6 km/h (1 Bft)
16.02.2018 17:30 2,9 C 94 % 1028,2 hPa 0,0 mm W 275 1,6 km/h (1 Bft)
16.02.2018 17:35 2,9 C 95 % 1028,3 hPa 0,0 mm W 275 3,2 km/h (1 Bft)
16.02.2018 17:40 2,9 C 94 % 1028,3 hPa 0,0 mm W 275 3,2 km/h (1 Bft)
16.02.2018 17:45 2,8 C 94 % 1028,3 hPa 0,0 mm W 275 4,8 km/h (1 Bft)
16.02.2018 17:50 2,7 C 95 % 1028,4 hPa 0,0 mm W 275 3,2 km/h (1 Bft)
16.02.2018 17:55 2,7 C 95 % 1028,5 hPa 0,0 mm W 275 3,2 km/h (1 Bft)
16.02.2018 18:00 2,7 C 95 % 1028,5 hPa 0,0 mm W 275 0,0 km/h (0 Bft)
16.02.2018 18:05 2,7 C 95 % 1028,6 hPa 0,0 mm W 275 0,0 km/h (0 Bft)
16.02.2018 18:10 2,8 C 95 % 1028,5 hPa 0,0 mm W 275 0,0 km/h (0 Bft)
16.02.2018 18:15 2,7 C 95 % 1028,6 hPa 0,0 mm W 275 0,0 km/h (0 Bft)
16.02.2018 18:20 2,4 C 95 % 1028,6 hPa 0,0 mm W 275 0,0 km/h (0 Bft)
16.02.2018 18:25 2,4 C 95 % 1028,6 hPa 0,0 mm W 275 0,0 km/h (0 Bft)
16.02.2018 18:30 2,6 C 95 % 1028,6 hPa 0,0 mm W 275 0,0 km/h (0 Bft)
16.02.2018 18:35 2,6 C 95 % 1028,6 hPa 0,0 mm W 275 0,0 km/h (0 Bft)
16.02.2018 18:40 2,4 C 95 % 1028,6 hPa 0,0 mm W 275 0,0 km/h (0 Bft)
16.02.2018 18:45 2,3 C 95 % 1028,6 hPa 0,0 mm W 275 0,0 km/h (0 Bft)
16.02.2018 18:50 2,2 C 95 % 1028,6 hPa 0,0 mm W 275 0,0 km/h (0 Bft)
16.02.2018 18:55 2,1 C 95 % 1028,6 hPa 0,0 mm W 275 0,0 km/h (0 Bft)
16.02.2018 19:00 2,1 C 95 % 1028,7 hPa 0,0 mm W 275 0,0 km/h (0 Bft)
16.02.2018 19:05 2,2 C 95 % 1028,8 hPa 0,0 mm W 275 0,0 km/h (0 Bft)
16.02.2018 19:10 2,2 C 95 % 1028,8 hPa 0,0 mm W 275 0,0 km/h (0 Bft)
16.02.2018 19:15 2,1 C 95 % 1028,7 hPa 0,0 mm W 275 0,0 km/h (0 Bft)
16.02.2018 19:20 1,9 C 95 % 1028,8 hPa 0,0 mm W 275 0,0 km/h (0 Bft)
16.02.2018 19:25 1,9 C 95 % 1028,7 hPa 0,0 mm W 275 0,0 km/h (0 Bft)
16.02.2018 19:30 1,9 C 96 % 1028,6 hPa 0,0 mm W 275 0,0 km/h (0 Bft)
16.02.2018 19:35 2,1 C 96 % 1028,6 hPa 0,0 mm W 275 0,0 km/h (0 Bft)
16.02.2018 19:40 2,1 C 96 % 1028,6 hPa 0,0 mm W 275 0,0 km/h (0 Bft)
16.02.2018 19:45 2,1 C 96 % 1028,5 hPa 0,0 mm W 275 0,0 km/h (0 Bft)
16.02.2018 19:50 2,0 C 96 % 1028,7 hPa 0,0 mm W 275 0,0 km/h (0 Bft)
16.02.2018 19:55 2,1 C 96 % 1028,7 hPa 0,0 mm W 275 0,0 km/h (0 Bft)
16.02.2018 20:00 2,2 C 96 % 1028,8 hPa 0,0 mm W 275 0,0 km/h (0 Bft)
16.02.2018 20:05 2,2 C 96 % 1028,7 hPa 0,0 mm W 275 0,0 km/h (0 Bft)
16.02.2018 20:10 2,2 C 96 % 1028,6 hPa 0,0 mm W 275 0,0 km/h (0 Bft)
16.02.2018 20:15 1,9 C 96 % 1028,7 hPa 0,0 mm W 275 0,0 km/h (0 Bft)
16.02.2018 20:20 1,9 C 96 % 1028,6 hPa 0,0 mm W 275 3,2 km/h (1 Bft)
16.02.2018 20:25 1,9 C 96 % 1028,6 hPa 0,0 mm W 275 1,6 km/h (1 Bft)
16.02.2018 20:30 1,9 C 96 % 1028,5 hPa 0,0 mm W 275 1,6 km/h (1 Bft)
16.02.2018 20:35 1,9 C 96 % 1028,6 hPa 0,0 mm W 275 0,0 km/h (0 Bft)
16.02.2018 20:40 1,9 C 96 % 1028,6 hPa 0,0 mm W 275 0,0 km/h (0 Bft)
16.02.2018 20:45 2,0 C 96 % 1028,5 hPa 0,0 mm W 275 0,0 km/h (0 Bft)
16.02.2018 20:50 2,0 C 96 % 1028,5 hPa 0,0 mm W 275 0,0 km/h (0 Bft)
16.02.2018 20:55 1,8 C 96 % 1028,4 hPa 0,0 mm W 275 0,0 km/h (0 Bft)
16.02.2018 21:00 1,8 C 96 % 1028,3 hPa 0,0 mm W 275 0,0 km/h (0 Bft)
16.02.2018 21:05 1,7 C 96 % 1028,3 hPa 0,0 mm W 275 0,0 km/h (0 Bft)
16.02.2018 21:10 1,7 C 96 % 1028,4 hPa 0,0 mm W 275 0,0 km/h (0 Bft)
16.02.2018 21:15 1,8 C 96 % 1028,3 hPa 0,0 mm W 275 0,0 km/h (0 Bft)
16.02.2018 21:20 1,8 C 96 % 1028,2 hPa 0,0 mm W 275 0,0 km/h (0 Bft)
16.02.2018 21:25 1,7 C 96 % 1028,2 hPa 0,0 mm W 275 0,0 km/h (0 Bft)
16.02.2018 21:30 1,6 C 96 % 1028,1 hPa 0,0 mm W 275 0,0 km/h (0 Bft)
16.02.2018 21:35 1,6 C 96 % 1028,0 hPa 0,0 mm W 275 0,0 km/h (0 Bft)
16.02.2018 21:40 1,7 C 96 % 1027,9 hPa 0,0 mm W 275 0,0 km/h (0 Bft)
16.02.2018 21:45 1,7 C 96 % 1027,9 hPa 0,0 mm W 275 0,0 km/h (0 Bft)
16.02.2018 21:50 1,6 C 96 % 1027,9 hPa 0,0 mm W 275 0,0 km/h (0 Bft)
16.02.2018 21:55 1,6 C 96 % 1027,8 hPa 0,0 mm W 275 0,0 km/h (0 Bft)
16.02.2018 22:00 1,6 C 96 % 1027,9 hPa 0,0 mm W 275 0,0 km/h (0 Bft)
16.02.2018 22:05 1,3 C 96 % 1027,9 hPa 0,0 mm W 275 0,0 km/h (0 Bft)
16.02.2018 22:10 1,3 C 96 % 1027,9 hPa 0,0 mm W 275 0,0 km/h (0 Bft)
16.02.2018 22:15 1,4 C 96 % 1028,0 hPa 0,0 mm W 275 0,0 km/h (0 Bft)
16.02.2018 22:20 1,4 C 96 % 1027,9 hPa 0,0 mm W 275 0,0 km/h (0 Bft)
16.02.2018 22:25 1,4 C 96 % 1027,9 hPa 0,0 mm W 275 0,0 km/h (0 Bft)
16.02.2018 22:30 1,4 C 96 % 1027,9 hPa 0,0 mm W 275 0,0 km/h (0 Bft)
16.02.2018 22:35 1,4 C 96 % 1028,0 hPa 0,0 mm W 275 0,0 km/h (0 Bft)
16.02.2018 22:40 1,4 C 96 % 1027,8 hPa 0,0 mm W 275 0,0 km/h (0 Bft)
16.02.2018 22:45 1,4 C 96 % 1027,9 hPa 0,0 mm W 275 0,0 km/h (0 Bft)
16.02.2018 22:50 1,4 C 96 % 1027,8 hPa 0,0 mm W 275 0,0 km/h (0 Bft)
16.02.2018 22:55 1,5 C 96 % 1027,9 hPa 0,0 mm W 275 0,0 km/h (0 Bft)
16.02.2018 23:00 1,6 C 96 % 1027,7 hPa 0,0 mm W 275 0,0 km/h (0 Bft)
16.02.2018 23:05 1,6 C 96 % 1027,8 hPa 0,0 mm W 275 0,0 km/h (0 Bft)
16.02.2018 23:10 1,6 C 96 % 1027,8 hPa 0,0 mm W 275 0,0 km/h (0 Bft)
16.02.2018 23:15 1,4 C 96 % 1027,7 hPa 0,0 mm W 275 0,0 km/h (0 Bft)
16.02.2018 23:20 1,3 C 96 % 1027,5 hPa 0,0 mm W 275 0,0 km/h (0 Bft)
16.02.2018 23:25 1,3 C 96 % 1027,4 hPa 0,0 mm W 275 0,0 km/h (0 Bft)
16.02.2018 23:30 1,3 C 96 % 1027,4 hPa 0,0 mm W 275 0,0 km/h (0 Bft)
16.02.2018 23:35 1,4 C 96 % 1027,3 hPa 0,0 mm W 275 0,0 km/h (0 Bft)
16.02.2018 23:40 1,3 C 96 % 1027,3 hPa 0,0 mm W 275 0,0 km/h (0 Bft)
16.02.2018 23:45 1,3 C 96 % 1027,2 hPa 0,0 mm W 275 0,0 km/h (0 Bft)
16.02.2018 23:50 1,3 C 96 % 1027,2 hPa 0,0 mm S 185 4,8 km/h (1 Bft)
16.02.2018 23:55 1,3 C 96 % 1027,1 hPa 0,0 mm SO 126 3,2 km/h (1 Bft)
_ Min-Zeit 00:05 15:25 03:10 - - - 00:00
Minimum _ 0,5 C 91 % 1021,3 hPa - - - 0,0 km/h (0 Bft)
_ Max-Zeit 14:00 00:00 19:05 00:45 - - 06:05
Maximum _ 4,8 C 96 % 1028,8 hPa 0,2 mm - - 17,7 km/h
W (3 Bft)
Durchschnitt _ 2,1 C 95 % 1026,1 hPa #8,0 mm W - 3,0 km/h (1 Bft)